This is the latest recevied weather packets stored in our database for station/object KM4KMS. If no packets are shown the sender has not sent any weather packets the latest 10 day(s).
| Time | Temp. | Humidity | Pressure | Rain* | Wind** | Luminosity | Snow |
|---|---|---|---|---|---|---|---|
| 1777415730 | 23.33° C | 70% | 1012.1 hPa | 0 mm | - | 107 W/m² | - |
| 1777415426 | 23.33° C | 69% | 1011.8 hPa | 0 mm | - | 114 W/m² | - |
| 1777415126 | 23.89° C | 69% | 1012 hPa | 0 mm | - | 143 W/m² | - |
| 1777414821 | 23.89° C | 68% | 1012 hPa | 0 mm | - | 161 W/m² | - |
| 1777414517 | 23.89° C | 69% | 1011.6 hPa | 0 mm | - | 115 W/m² | - |
| 1777414215 | 23.89° C | 69% | 1011.6 hPa | 0 mm | - | 210 W/m² | - |
| 1777413911 | 24.44° C | 67% | 1011.4 hPa | 0 mm | - | 238 W/m² | - |
| 1777413607 | 24.44° C | 67% | 1011.2 hPa | 0 mm | - | 241 W/m² | - |
| 1777413303 | 24.44° C | 66% | 1011.3 hPa | 0 mm | - | 277 W/m² | - |
| 1777412998 | 24.44° C | 67% | 1011.8 hPa | 0 mm | - | 328 W/m² | - |
| 1777412697 | 24.44° C | 68% | 1011.7 hPa | 0 mm | - | 366 W/m² | - |
| 1777412396 | 23.89° C | 68% | 1011.9 hPa | 0 mm | - | 300 W/m² | - |
| 1777412090 | 23.89° C | 69% | 1011.7 hPa | 0 mm | - | 214 W/m² | - |
| 1777411786 | 24.44° C | 69% | 1011.8 hPa | 0 mm | - | 218 W/m² | - |
| 1777411485 | 23.89° C | 69% | 1011.8 hPa | 0 mm | - | 229 W/m² | - |
| 1777411184 | 23.89° C | 68% | 1011.9 hPa | 0 mm | - | 213 W/m² | - |
| 1777410879 | 23.89° C | 68% | 1012.1 hPa | 0 mm | - | 228 W/m² | - |
| 1777410579 | 24.44° C | 68% | 1012.3 hPa | 0 mm | - | 232 W/m² | - |
| 1777410273 | 23.89° C | 68% | 1012.5 hPa | 0 mm | - | 266 W/m² | - |
| 1777409968 | 23.89° C | 66% | 1012.5 hPa | 0 mm | - | 256 W/m² | - |
| 1777409663 | 24.44° C | 66% | 1012.3 hPa | 0 mm | - | 294 W/m² | - |
| 1777409360 | 24.44° C | 66% | 1012.7 hPa | 0 mm | - | 357 W/m² | - |
| 1777409055 | 25° C | 66% | 1012.7 hPa | 0 mm | - | 392 W/m² | - |
| 1777408752 | 24.44° C | 67% | 1012.9 hPa | 0 mm | - | 432 W/m² | - |
| 1777408448 | 24.44° C | 67% | 1012.6 hPa | 0 mm | - | 452 W/m² | - |
* Rain latest hour (hover to see other rain measurements)
** Current wind speed in m/s (hover to see current wind gust speed)